(704) Interamnia
ephemeris date magn radius delta ra dec elong phase
Today3 Jul 202512.83.505 AU3.861 AU10h30m-07°08'62.2°14.9°
Opposition1 May 202611.53.469 AU2.509 AU14h02m-34°52'159.0°6.0°
(704) Interamnia - 2025-07-03
astro.vanbuitenen.nl


 
-1 year
-1 month
-1 day
Now
+1 day
+1 month
+1 year

The interactive orbit chart above shows the body's path through the solar system and its position at the given date. Green and blue lines are shown perpendicular to the ecliptic plane: Green if the path is above the ecliptic plane, blue if it is below. (Left-click and drag to rotate the view; Right-click and drag to move the view; Use scroll wheel to zoom in our out.)

The orbital elements of Interamnia are:

            e (Eccentricity)                : 0.1554096
            a (Semimajor axis)              : 3.0558370
            i (Inclination)                 : 17.31555
            Ω (Longitude of ascending node) : 280.16780
            ω (Argument of perihelion)      : 94.12537
            M (Mean anomaly)                : 147.27677
            Epoch                           : 2025 May 05

            L (Longitude of perihelion)     : 194.48828
            B (Latitude of perihelion)      : 17.26927
            P (Orbital period in years)     : 5.34            
        

The light curve chart below shows the estimated development of the minor planet's magnitude.


The all-sky chart below shows the path of the minor planet over the same period as the light curve. The current position is marked yellow.





The following chart shows the path of the minor planet in the next few days. The field of view is optimized for (~10x50) binoculars and finderscopes. A more printer-friendly version of the same chart can be found below.




Ephemerides:
Date       Time       RA (2000)    DEC (2000)    delta   radius  elong  phase   PA    magn
2025-07-03 00:00 UT   10 30 40.0   -07 08 58     3.861    3.505   62.2   14.9   121   12.8 
2025-07-03 05:46 UT   10 30 54.0   -07 09 46     3.864    3.505   62.1   14.8   121   12.8 
2025-07-04 00:00 UT   10 31 38.4   -07 12 19     3.874    3.505   61.6   14.8   121   12.8 
2025-07-05 00:00 UT   10 32 37.1   -07 15 44     3.886    3.506   60.9   14.7   121   12.8 
2025-07-06 00:00 UT   10 33 36.2   -07 19 15     3.899    3.506   60.2   14.6   121   12.8 
2025-07-07 00:00 UT   10 34 35.7   -07 22 50     3.911    3.507   59.5   14.5   122   12.8 
2025-07-08 00:00 UT   10 35 35.5   -07 26 30     3.923    3.507   58.9   14.4   122   12.8 
2025-07-09 00:00 UT   10 36 35.8   -07 30 15     3.935    3.508   58.2   14.3   122   12.8 
2025-07-10 00:00 UT   10 37 36.3   -07 34 04     3.947    3.508   57.6   14.2   123   12.8 
2025-07-11 00:00 UT   10 38 37.2   -07 37 58     3.959    3.508   56.9   14.0   123   12.8 
2025-07-12 00:00 UT   10 39 38.5   -07 41 57     3.970    3.509   56.2   13.9   123   12.8 
2025-07-13 00:00 UT   10 40 40.1   -07 46 01     3.982    3.509   55.6   13.8   123   12.8 
2025-07-14 00:00 UT   10 41 42.0   -07 50 09     3.994    3.510   54.9   13.7   124   12.9 
2025-07-15 00:00 UT   10 42 44.2   -07 54 21     4.005    3.510   54.3   13.6   124   12.9 
2025-07-16 00:00 UT   10 43 46.8   -07 58 38     4.016    3.510   53.6   13.5   124   12.9 
2025-07-17 00:00 UT   10 44 49.7   -08 02 59     4.028    3.511   53.0   13.4   124   12.9 
2025-07-18 00:00 UT   10 45 52.8   -08 07 25     4.039    3.511   52.3   13.2   125   12.9 
2025-07-19 00:00 UT   10 46 56.3   -08 11 55     4.050    3.511   51.7   13.1   125   12.9 
2025-07-20 00:00 UT   10 48 00.1   -08 16 29     4.061    3.512   51.0   13.0   125   12.9 
2025-07-21 00:00 UT   10 49 04.2   -08 21 08     4.072    3.512   50.4   12.9   126   12.9 
2025-07-22 00:00 UT   10 50 08.6   -08 25 51     4.082    3.513   49.8   12.8   126   12.9 
2025-07-23 00:00 UT   10 51 13.3   -08 30 38     4.093    3.513   49.1   12.6   126   12.9 
2025-07-24 00:00 UT   10 52 18.2   -08 35 29     4.103    3.513   48.5   12.5   126   12.9 
2025-07-25 00:00 UT   10 53 23.4   -08 40 24     4.114    3.514   47.8   12.4   127   12.9 
2025-07-26 00:00 UT   10 54 28.9   -08 45 24     4.124    3.514   47.2   12.2   127   12.9 
2025-07-27 00:00 UT   10 55 34.6   -08 50 28     4.134    3.514   46.6   12.1   127   12.9 
2025-07-28 00:00 UT   10 56 40.6   -08 55 35     4.144    3.515   45.9   12.0   128   12.9 
2025-07-29 00:00 UT   10 57 46.9   -09 00 47     4.154    3.515   45.3   11.9   128   12.9 
2025-07-30 00:00 UT   10 58 53.3   -09 06 02     4.164    3.515   44.7   11.7   128   12.9 
2025-07-31 00:00 UT   11 00 00.1   -09 11 21     4.173    3.516   44.1   11.6   129   12.9 
2025-08-01 00:00 UT   11 01 07.0   -09 16 44     4.183    3.516   43.4   11.5   129   12.9 
2025-08-02 00:00 UT   11 02 14.2   -09 22 11     4.192    3.516   42.8   11.3   129   12.9 


    Terminology:
            
    delta:  distance between minor planet and earth in AU
    radius: distance between minor planet and sun in AU
    magn:   magnitude (brightness) estimate    
    ra:     right ascension in hours (24h = 360deg)
    dec:    declination in degrees
    elong:  elongation in degrees (angle sun-earth-minor planet)    
    phase:  phase angle in degrees (angle sun-minor planet-earth)        
    AU:     Astronomical Unit (mean distance between earth and sun: 149597870.7 km
    

Orbital elements provided by the MPC (Minor Planet Center).
Calculations by a modified version of AAPlus, a C# implementation of the AA+ project by PJ Naughter from the algorithms presented in the book "Astronomical Algorithms" by Jean Meeus.
NGC2000 dso catalog and star labels from VizieR as provided by the Strasbourg astronomical Data Center.
Tycho2 catalog from the ESO archive.